FW6744 Weather Reports


time (UTC)temp
C
wind
direction
speed
KPH
gust
KPH
rain 1hr
cm
rain 24hr
cm
rain mn
cm
humidity
%
barometer
mb
20260901141333 28 118 0.0 1.6 0.00 0.00 0.00 79 1013.8
20260901140832 28 90 0.0 4.8 0.00 0.00 0.00 79 1013.8
20260901140332 28 89 1.6 9.7 0.00 0.00 0.00 79 1013.8
20260901135832 27 107 1.6 9.7 0.00 0.00 0.00 79 1013.8
20260901135332 27 77 0.0 3.2 0.00 0.00 0.00 80 1013.8
20260901134831 27 206 0.0 4.8 0.00 0.00 0.00 80 1013.8
20260901134332 27 177 0.0 4.8 0.00 0.00 0.00 81 1013.8
20260901133831 27 171 0.0 3.2 0.00 0.00 0.00 82 1013.8
20260901133554 27 72 0.0 3.2 0.00 0.00 0.00 82 1013.8
20260901132827 27 169 0.0 3.2 0.00 0.00 0.00 83 1013.7
20260901132326 26 234 0.0 6.4 0.00 0.00 0.00 84 1013.7
20260901132050 26 94 0.0 6.4 0.00 0.00 0.00 86 1013.7
20260901131325 26 225 0.0 1.6 0.00 0.00 0.00 88 1013.8
20260901130825 26 225 0.0 1.6 0.00 0.00 0.00 89 1013.9
20260901130326 26 225 0.0 1.6 0.00 0.00 0.00 90 1013.9
20260901125826 25 225 0.0 3.2 0.00 0.00 0.00 90 1013.9
20260901125326 25 225 0.0 3.2 0.00 0.00 0.00 91 1013.9
20260901124826 25 212 0.0 0.0 0.00 0.00 0.00 92 1013.9
20260901124555 25 212 0.0 1.6 0.00 0.00 0.00 93 1013.9
20260901123826 24 212 0.0 1.6 0.00 0.00 0.00 94 1013.9
20260901123325 24 208 0.0 1.6 0.00 0.00 0.00 94 1013.9
20260901122825 24 208 0.0 0.0 0.00 0.00 0.00 94 1013.9
20260901122326 23 208 0.0 0.0 0.00 0.00 0.00 94 1013.9
20260901122314 23 208 0.0 0.0 0.00 0.00 0.00 94 1013.9
20260901121326 23 208 0.0 0.0 0.00 0.00 0.00 94 1013.9
20260901120826 23 208 0.0 0.0 0.00 0.00 0.00 94 1013.9
20260901120329 23 208 0.0 0.0 0.00 0.00 0.00 94 1014.0
20260901115822 23 208 0.0 0.0 0.00 0.00 0.00 94 1013.9
20260901115539 23 208 0.0 0.0 0.00 0.00 0.00 94 1013.9
20260901114811 23 208 0.0 0.0 0.00 0.00 0.00 94 1013.9
20260901114305 23 208 0.0 0.0 0.00 0.00 0.00 94 1013.8
20260901113758 23 208 0.0 0.0 0.00 0.00 0.00 94 1013.8
20260901113257 23 208 0.0 0.0 0.00 0.00 0.00 94 1013.7
20260901113236 23 208 0.0 0.0 0.00 0.00 0.00 94 1013.6
20260901112253 23 208 0.0 0.0 0.00 0.00 0.00 93 1013.5
20260901111755 23 208 0.0 0.0 0.00 0.00 0.00 93 1013.5
20260901111515 23 208 0.0 0.0 0.00 0.00 0.00 93 1013.5
20260901110751 23 208 0.0 0.0 0.00 0.00 0.00 93 1013.5
20260901110248 23 208 0.0 0.0 0.00 0.00 0.00 93 1013.4
20260901105746 23 208 0.0 0.0 0.00 0.00 0.00 93 1013.3
20260901105244 23 208 0.0 0.0 0.00 0.00 0.00 93 1013.4
20260901104741 23 208 0.0 1.6 0.00 0.00 0.00 93 1013.2
20260901104240 23 208 0.0 1.6 0.00 0.00 0.00 93 1013.2
20260901103739 23 209 0.0 1.6 0.00 0.00 0.00 94 1013.2
20260901103235 23 209 0.0 1.6 0.00 0.00 0.00 94 1013.2
20260901102958 23 146 0.0 0.0 0.00 0.00 0.00 94 1013.2
20260901102234 23 146 0.0 1.6 0.00 0.00 0.00 94 1013.2
20260901101734 23 146 0.0 1.6 0.00 0.00 0.00 95 1013.2
20260901101235 23 35 0.0 1.6 0.00 0.00 0.00 95 1013.3
20260901100734 23 35 0.0 1.6 0.00 0.00 0.00 95 1013.3
20260901100454 23 32 0.0 0.0 0.00 0.00 0.00 95 1013.4
20260901095730 22 31 0.0 0.0 0.00 0.00 0.00 95 1013.4
20260901095229 22 31 0.0 0.0 0.00 0.00 0.00 95 1013.3
20260901094950 22 30 0.0 0.0 0.00 0.00 0.00 95 1013.3
20260901094218 22 30 0.0 0.0 0.00 0.00 0.00 95 1013.2
20260901093711 22 30 0.0 0.0 0.00 0.00 0.00 95 1013.2
20260901093206 22 31 0.0 0.0 0.00 0.00 0.00 95 1013.2
20260901092700 22 30 0.0 0.0 0.00 0.00 0.00 95 1013.3
20260901092154 22 30 0.0 0.0 0.00 0.00 0.00 95 1013.3
20260901091648 22 30 0.0 0.0 0.00 0.00 0.00 95 1013.3
20260901091142 22 31 0.0 0.0 0.00 0.00 0.00 95 1013.3
20260901090635 22 30 0.0 0.0 0.00 0.00 0.00 95 1013.3
20260901090130 22 30 0.0 0.0 0.00 0.00 0.00 95 1013.3
20260901085624 22 30 0.0 0.0 0.00 0.00 0.00 94 1013.2
20260901085118 22 31 0.0 0.0 0.00 0.00 0.00 94 1013.3
20260901084841 22 30 0.0 0.0 0.00 0.00 0.00 94 1013.3
20260901084106 22 30 0.0 0.0 0.00 0.00 0.00 94 1013.3
20260901083600 22 30 0.0 0.0 0.00 0.00 0.00 94 1013.2
20260901083054 22 30 0.0 0.0 0.00 0.00 0.00 94 1013.3
20260901082548 22 30 0.0 0.0 0.00 0.00 0.00 94 1013.3
20260901082042 22 30 0.0 0.0 0.00 0.00 0.00 94 1013.3
20260901081535 22 30 0.0 0.0 0.00 0.00 0.00 94 1013.3
20260901081253 22 31 0.0 0.0 0.00 0.00 0.00 94 1013.3
20260901080751 22 31 0.0 0.0 0.00 0.00 0.00 94 1013.4
20260901080017 22 31 0.0 0.0 0.00 0.00 0.00 93 1013.4
20260901075512 22 30 0.0 0.0 0.00 0.00 0.00 93 1013.4
20260901075006 22 30 0.0 0.0 0.00 0.00 0.00 94 1013.3
20260901074950 22 31 0.0 0.0 0.00 0.00 0.00 94 1013.4
20260901073954 22 31 0.0 0.0 0.00 0.00 0.00 94 1013.3
20260901073448 22 30 0.0 0.0 0.00 0.00 0.00 93 1013.4
20260901072942 23 31 0.0 0.0 0.00 0.00 0.00 93 1013.4
20260901072700 23 30 0.0 0.0 0.00 0.00 0.00 93 1013.3
20260901071930 23 30 0.0 0.0 0.00 0.00 0.00 93 1013.5
20260901071424 23 31 0.0 0.0 0.00 0.00 0.00 93 1013.5
20260901071140 23 30 0.0 0.0 0.00 0.00 0.00 93 1013.6
20260901070412 23 30 0.0 0.0 0.00 0.00 0.00 93 1013.7
20260901065906 23 31 0.0 0.0 0.00 0.00 0.00 93 1013.7
20260901065400 23 31 0.0 0.0 0.00 0.00 0.00 92 1013.7
20260901065112 23 31 0.0 0.0 0.00 0.00 0.00 92 1013.8
20260901064348 23 31 0.0 0.0 0.00 0.00 0.00 92 1013.8
20260901063842 23 30 0.0 0.0 0.00 0.00 0.00 92 1013.9
20260901063602 23 30 0.0 0.0 0.00 0.00 0.00 92 1013.9
20260901062842 23 31 0.0 0.0 0.00 0.00 0.00 92 1013.9
20260901062342 23 31 0.0 0.0 0.00 0.00 0.00 92 1013.9
20260901061840 23 31 0.0 0.0 0.00 0.00 0.00 91 1014.0
20260901061338 23 30 0.0 0.0 0.00 0.00 0.00 91 1014.0
20260901060836 23 30 0.0 0.0 0.00 0.00 0.00 91 1014.0
20260901060341 23 31 0.0 0.0 0.00 0.00 0.00 91 1014.1
20260901060106 23 30 0.0 0.0 0.00 0.00 0.00 91 1014.1
20260901055558 23 30 0.0 0.0 0.00 0.00 0.00 91 1014.1
20260901054836 23 31 0.0 0.0 0.00 0.00 0.00 91 1014.3
20260901054334 23 31 0.0 0.0 0.00 0.00 0.00 91 1014.2
20260901053831 23 30 0.0 0.0 0.00 0.00 0.00 90 1014.2
20260901053331 23 30 0.0 0.0 0.00 0.00 0.00 90 1014.3
20260901052830 23 30 0.0 0.0 0.00 0.00 0.00 90 1014.3
20260901052332 23 31 0.0 0.0 0.00 0.00 0.00 90 1014.4
20260901051830 23 31 0.0 0.0 0.00 0.00 0.00 89 1014.4
20260901051552 23 31 0.0 0.0 0.00 0.00 0.00 89 1014.4
20260901050835 23 30 0.0 0.0 0.00 0.00 0.00 89 1014.5
20260901050329 24 30 0.0 0.0 0.00 0.00 0.00 89 1014.5
20260901045827 24 30 0.0 0.0 0.00 0.00 0.00 88 1014.5
20260901045324 24 31 0.0 0.0 0.00 0.00 0.00 88 1014.6
20260901044825 24 30 0.0 0.0 0.00 0.00 0.00 88 1014.6
20260901044547 24 31 0.0 0.0 0.00 0.00 0.00 88 1014.6
20260901043825 24 30 0.0 0.0 0.00 0.00 0.00 88 1014.6
20260901043325 24 30 0.0 0.0 0.00 0.00 0.00 88 1014.6
20260901042823 24 30 0.0 0.0 0.00 0.00 0.00 87 1014.7
20260901042323 24 30 0.0 0.0 0.00 0.00 0.00 87 1014.6
20260901041824 24 31 0.0 0.0 0.00 0.00 0.00 87 1014.6
20260901041323 25 31 0.0 0.0 0.00 0.00 0.00 87 1014.5
20260901040824 25 31 0.0 0.0 0.00 0.00 0.00 87 1014.5
20260901040321 25 30 0.0 0.0 0.00 0.00 0.00 87 1014.4
20260901035822 25 31 0.0 0.0 0.00 0.00 0.00 87 1014.3
20260901035316 25 31 0.0 0.0 0.00 0.00 0.00 86 1014.4
20260901034811 25 31 0.0 0.0 0.00 0.00 0.00 86 1014.4
20260901034753 25 30 0.0 0.0 0.00 0.00 0.00 86 1014.4
20260901033758 25 31 0.0 0.0 0.00 0.00 0.00 85 1014.4
20260901033252 25 30 0.0 0.0 0.00 0.00 0.00 84 1014.3
20260901033008 25 31 0.0 0.0 0.00 0.00 0.00 84 1014.3
20260901032240 25 31 0.0 0.0 0.00 0.00 0.00 85 1014.3
20260901031733 25 31 0.0 0.0 0.00 0.00 0.00 84 1014.2
20260901031228 25 30 0.0 0.0 0.00 0.00 0.00 84 1014.3
20260901030721 25 30 0.0 0.0 0.00 0.00 0.00 83 1014.4
20260901030216 26 30 0.0 0.0 0.00 0.00 0.00 84 1014.4
20260901025716 26 31 0.0 0.0 0.00 0.00 0.00 83 1014.4
20260901025216 26 31 0.0 0.0 0.00 0.00 0.00 83 1014.4
20260901024718 26 31 0.0 0.0 0.00 0.00 0.00 82 1014.3
20260901024215 26 31 0.0 0.0 0.00 0.00 0.00 82 1014.3
20260901023715 26 30 0.0 0.0 0.00 0.00 0.00 82 1014.3
20260901023702 26 30 0.0 0.0 0.00 0.00 0.00 82 1014.3
20260901022716 26 31 0.0 0.0 0.00 0.00 0.00 82 1014.3
20260901022658 26 30 0.0 0.0 0.00 0.00 0.00 81 1014.4
20260901022308 26 30 0.0 0.0 0.00 0.00 0.00 81 1014.3
20260901021216 26 31 0.0 0.0 0.00 0.00 0.00 81 1014.5
20260901020940 26 30 0.0 0.0 0.00 0.00 0.00 81 1014.5
20260901020216 26 30 0.0 0.0 0.00 0.00 0.00 80 1014.5
20260901015951 26 31 0.0 0.0 0.00 0.00 0.00 80 1014.5
20260901015214 27 31 0.0 0.0 0.00 0.00 0.00 80 1014.6
20260901014713 27 30 0.0 0.0 0.00 0.00 0.00 80 1014.5
20260901014435 27 30 0.0 0.0 0.00 0.00 0.00 80 1014.5
20260901013714 27 30 0.0 0.0 0.00 0.00 0.00 80 1014.5
20260901013208 27 30 0.0 0.0 0.00 0.00 0.00 80 1014.4
20260901012702 27 30 0.0 0.0 0.00 0.00 0.00 80 1014.5
20260901012156 27 31 0.0 0.0 0.00 0.00 0.00 80 1014.4
20260901011650 27 31 0.0 0.0 0.00 0.00 0.00 79 1014.3
20260901011144 27 30 0.0 0.0 0.00 0.00 0.00 79 1014.3
20260901010637 27 30 0.0 1.6 0.00 0.00 0.00 79 1014.3
20260901010132 27 30 0.0 1.6 0.00 0.00 0.00 78 1014.2
20260901005626 27 30 0.0 0.0 0.00 0.00 0.00 78 1014.2
20260901005119 27 30 0.0 0.0 0.00 0.00 0.00 78 1014.2
20260901004614 27 30 0.0 0.0 0.00 0.00 0.00 78 1014.2
20260901004107 27 30 0.0 0.0 0.00 0.00 0.00 78 1014.3
20260901003602 27 30 0.0 0.0 0.00 0.00 0.00 78 1014.3
20260901003056 27 30 0.0 0.0 0.00 0.00 0.00 78 1014.3
20260901002550 27 30 0.0 0.0 0.00 0.00 0.00 78 1014.2
20260901002044 27 30 0.0 0.0 0.00 0.00 0.00 77 1014.1
20260901001537 27 30 0.0 0.0 0.00 0.00 0.00 77 1014.1
20260901001251 27 30 0.0 0.0 0.00 0.00 0.00 77 1014.0
20260901000526 27 30 0.0 0.0 0.00 0.00 0.00 76 1013.9
20260901000020 27 30 0.0 0.0 0.00 0.00 0.00 76 1013.9
20260831235514 28 30 0.0 0.0 0.00 0.00 0.00 76 1013.8
20260831235008 28 30 0.0 0.0 0.00 0.00 0.00 75 1013.8
20260831234508 28 30 0.0 0.0 0.00 0.00 0.00 75 1013.9
20260831234005 28 30 0.0 0.0 0.00 0.00 0.00 74 1013.9
20260831233504 28 30 0.0 0.0 0.00 0.00 0.00 74 1013.9
20260831233006 28 30 0.0 0.0 0.00 0.00 0.00 73 1013.9
20260831232502 28 30 0.0 0.0 0.00 0.00 0.00 72 1013.9
20260831232004 28 30 0.0 0.0 0.00 0.00 0.00 72 1013.8
20260831231502 29 30 0.0 0.0 0.00 0.00 0.00 72 1013.8
20260831231000 29 30 0.0 0.0 0.00 0.00 0.00 71 1013.8
20260831230504 29 30 0.0 0.0 0.00 0.00 0.00 71 1013.7
20260831230232 30 30 0.0 0.0 0.00 0.00 0.00 70 1013.7
20260831225725 30 30 0.0 0.0 0.00 0.00 0.00 69 1013.7
20260831225222 30 30 0.0 0.0 0.00 0.00 0.00 67 1013.6
20260831224723 30 30 0.0 0.0 0.00 0.00 0.00 67 1013.7
20260831223959 30 30 0.0 0.0 0.00 0.00 0.00 67 1013.6
20260831223501 30 30 0.0 3.2 0.00 0.00 0.00 67 1013.7
20260831222957 31 30 0.0 3.2 0.00 0.00 0.00 66 1013.7
20260831222458 31 33 0.0 0.0 0.00 0.00 0.00 66 1013.8
20260831221956 31 32 0.0 0.0 0.00 0.00 0.00 66 1013.8
20260831221457 31 33 0.0 0.0 0.00 0.00 0.00 65 1013.8
20260831220958 31 33 0.0 0.0 0.00 0.00 0.00 64 1013.8
20260831220457 31 32 0.0 1.6 0.00 0.00 0.00 63 1013.8
20260831220434 31 33 0.0 1.6 0.00 0.00 0.00 61 1013.7
20260831215458 32 32 0.0 1.6 0.00 0.00 0.00 59 1013.7
20260831214956 32 32 0.0 1.6 0.00 0.00 0.00 59 1013.7
20260831214721 32 32 0.0 1.6 0.00 0.00 0.00 57 1013.7
20260831213957 33 33 0.0 1.6 0.00 0.00 0.00 58 1013.6
20260831213716 33 32 0.0 1.6 0.00 0.00 0.00 57 1013.6
20260831212956 33 33 0.0 1.6 0.00 0.00 0.00 55 1013.7
20260831212456 33 32 0.0 3.2 0.00 0.00 0.00 54 1013.6
20260831211957 33 33 0.0 3.2 0.00 0.00 0.00 56 1013.7
20260831211451 33 41 0.0 1.6 0.00 0.00 0.00 55 1013.6
20260831211205 33 44 1.6 3.2 0.00 0.00 0.00 56 1013.6
20260831210439 33 31 1.6 3.2 0.00 0.00 0.00 56 1013.6
20260831205933 33 31 1.6 4.8 0.00 0.00 0.00 56 1013.6
20260831205427 34 32 0.0 4.8 0.00 0.00 0.00 56 1013.6
20260831204921 34 238 0.0 1.6 0.00 0.00 0.00 55 1013.6
20260831204636 34 236 0.0 1.6 0.00 0.00 0.00 53 1013.6
20260831203909 34 264 0.0 1.6 0.00 0.00 0.00 51 1013.7
20260831203637 34 184 1.6 4.8 0.00 0.00 0.00 50 1013.7
20260831202857 35 165 1.6 4.8 0.00 0.00 0.00 51 1013.7
20260831202619 35 35 0.0 4.8 0.00 0.00 0.00 52 1013.6
20260831202100 35 25 1.6 4.8 0.00 0.00 0.00 50 1013.6
20260831201339 35 40 0.0 3.2 0.00 0.00 0.00 50 1013.7
20260831200833 35 27 0.0 3.2 0.00 0.00 0.00 52 1013.7
20260831200326 35 217 0.0 3.2 0.00 0.00 0.00 51 1013.7
20260831195821 35 32 1.6 6.4 0.00 0.00 0.00 51 1013.8
20260831195315 35 32 1.6 6.4 0.00 0.00 0.00 50 1013.8
20260831195027 35 204 1.6 8.0 0.00 0.00 0.00 49 1013.8
20260831194303 35 32 1.6 8.0 0.00 0.00 0.00 51 1013.8
20260831193756 35 189 1.6 6.4 0.00 0.00 0.00 49 1013.8
20260831193512 35 153 1.6 6.4 0.00 0.00 0.00 51 1013.9
20260831192745 34 34 1.6 8.0 0.00 0.00 0.00 56 1013.9
20260831192239 34 23 1.6 8.0 0.00 0.00 0.00 53 1013.9
20260831191954 35 269 1.6 4.8 0.00 0.00 0.00 53 1014.0
20260831191227 35 30 0.0 4.8 0.00 0.00 0.00 53 1014.0
20260831190721 34 36 1.6 4.8 0.00 0.00 0.00 54 1014.1
20260831190215 34 24 1.6 4.8 0.00 0.00 0.00 53 1014.2
20260831185937 34 35 1.6 4.8 0.00 0.00 0.00 51 1014.2
20260831185203 35 27 1.6 4.8 0.00 0.00 0.00 51 1014.3
20260831184657 35 38 0.0 4.8 0.00 0.00 0.00 53 1014.3
20260831184151 34 29 0.0 4.8 0.00 0.00 0.00 54 1014.3
20260831183645 34 28 1.6 6.4 0.00 0.00 0.00 54 1014.3
20260831183139 34 41 1.6 6.4 0.00 0.00 0.00 54 1014.4
20260831182850 34 222 0.0 6.4 0.00 0.00 0.00 53 1014.4
20260831182127 34 39 1.6 4.8 0.00 0.00 0.00 55 1014.4
20260831182104 34 34 1.6 4.8 0.00 0.00 0.00 54 1014.5
20260831181115 34 51 1.6 4.8 0.00 0.00 0.00 54 1014.6
20260831180609 34 174 1.6 4.8 0.00 0.00 0.00 54 1014.6
20260831175558 34 101 1.6 3.2 0.00 0.00 0.00 55 1014.6
20260831175058 34 205 0.0 3.2 0.00 0.00 0.00 56 1014.6
20260831174557 33 40 0.0 4.8 0.00 0.00 0.00 57 1014.7
20260831174054 33 218 0.0 4.8 0.00 0.00 0.00 56 1014.7
20260831173554 33 61 0.0 1.6 0.00 0.00 0.00 57 1014.8
20260831173055 33 50 1.6 6.4 0.00 0.00 0.00 58 1014.8
20260831172552 33 63 1.6 6.4 0.00 0.00 0.00 58 1014.9
20260831172052 33 46 0.0 6.4 0.00 0.00 0.00 59 1014.9
20260831171814 33 305 0.0 3.2 0.00 0.00 0.00 60 1014.9
20260831171050 33 48 0.0 3.2 0.00 0.00 0.00 61 1014.9
20260831170550 33 54 0.0 3.2 0.00 0.00 0.00 61 1014.9
20260831170305 33 188 0.0 4.8 0.00 0.00 0.00 63 1014.9
20260831165547 32 191 0.0 4.8 0.00 0.00 0.00 63 1014.8
20260831165047 32 70 0.0 3.2 0.00 0.00 0.00 65 1014.9
20260831164546 32 240 0.0 4.8 0.00 0.00 0.00 63 1015.1
20260831164046 32 101 1.6 4.8 0.00 0.00 0.00 65 1015.1
20260831163545 31 51 1.6 4.8 0.00 0.00 0.00 66 1015.1
20260831163041 31 323 0.0 4.8 0.00 0.00 0.00 66 1015.2
20260831162542 31 101 1.6 3.2 0.00 0.00 0.00 65 1015.2
20260831162039 31 213 1.6 3.2 0.00 0.00 0.00 67 1015.2
20260831161533 30 155 1.6 3.2 0.00 0.00 0.00 67 1015.4
20260831161027 30 37 0.0 3.2 0.00 0.00 0.00 69 1015.3
20260831160521 30 177 0.0 1.6 0.00 0.00 0.00 69 1015.3
20260831160503 30 34 1.6 3.2 0.00 0.00 0.00 71 1015.3
20260831155509 29 34 1.6 4.8 0.00 0.00 0.00 70 1015.4
20260831155003 29 34 0.0 4.8 0.00 0.00 0.00 74 1015.3
20260831154457 29 46 0.0 3.2 0.00 0.00 0.00 75 1015.4
20260831153951 28 29 0.0 3.2 0.00 0.00 0.00 76 1015.4
20260831153445 28 29 0.0 3.2 0.00 0.00 0.00 74 1015.3
20260831152939 28 287 0.0 1.6 0.00 0.00 0.00 76 1015.3
20260831152434 28 260 0.0 1.6 0.00 0.00 0.00 77 1015.4
20260831151928 28 259 0.0 1.6 0.00 0.00 0.00 77 1015.4
20260831151421 28 259 0.0 1.6 0.00 0.00 0.00 76 1015.3
20260831150915 28 37 0.0 3.2 0.00 0.00 0.00 78 1015.4
20260831150409 27 37 0.0 3.2 0.00 0.00 0.00 78 1015.3
20260831145903 27 30 0.0 3.2 0.00 0.00 0.00 79 1015.4
20260831145849 27 29 1.6 4.8 0.00 0.00 0.00 78 1015.4
20260831144854 27 233 1.6 4.8 0.00 0.00 0.00 79 1015.4
20260831144344 27 23 0.0 1.6 0.00 0.00 0.00 80 1015.4
20260831143839 27 334 0.0 1.6 0.00 0.00 0.00 80 1015.4
20260831143333 27 60 0.0 4.8 0.00 0.00 0.00 80 1015.4
20260831142830 27 163 0.0 4.8 0.00 0.00 0.00 80 1015.5
20260831142329 27 25 0.0 3.2 0.00 0.00 0.00 82 1015.5
20260831141828 26 6 0.0 1.6 0.00 0.00 0.00 81 1015.5